usa flag      colorado flag

Language: 

TigerDenWX History Data from Weather Underground


TigerDenWX Weather Station Historical Data
 
Daily Summary for November 16, 2018 Units:  English    Metric   Both
Daily Weekly Monthly Yearly Custom
  Current: High: Low: Average:
Temperature: 51.9 °F 51.9 °F 38.4 °F 43.3 °F
Dew Point: 22.2 °F 24.9 °F 17.5 °F 21.2 °F
Humidity: 31% 55% 27% 43%
Wind Speed: 0.0mph 7.0mph 0.0mph 1.1mph
Wind Gust: 1.0mph 8.0mph - -
WindCalm - - SSE
Pressure: 29.89 in 30.07 in 29.89 in -
Precipitation: 0.00 in      
Historical Graphs
 
 
Tabular Data for November 16, 2018
Time Temperature Dew Point Pressure Wind Wind Speed Wind Gust Humidity Rainfall Rate (Hourly) solar
00:04 39.9 °F 24.6 °F 30.07 in SSE 2.0 mph 7.0 mph 54% 0.00 in 0.00 W/m2
00:09 40.0 °F 24.7 °F 30.07 in SSW 3.0 mph 7.0 mph 54% 0.00 in 0.00 W/m2
00:14 40.1 °F 24.8 °F 30.07 in SE 2.0 mph 7.0 mph 54% 0.00 in 0.00 W/m2
00:19 40.2 °F 24.9 °F 30.07 in SSE 2.0 mph 7.0 mph 54% 0.00 in 0.00 W/m2
00:24 40.2 °F 24.9 °F 30.07 in South 1.0 mph 6.0 mph 54% 0.00 in 0.00 W/m2
00:29 40.1 °F 24.8 °F 30.07 in South 3.0 mph 7.0 mph 54% 0.00 in 0.00 W/m2
00:34 40.0 °F 24.7 °F 30.06 in Calm   7.0 mph 54% 0.00 in 0.00 W/m2
00:39 39.9 °F 24.6 °F 30.06 in SE 4.0 mph 6.0 mph 54% 0.00 in 0.00 W/m2
00:44 39.8 °F 24.5 °F 30.06 in SE 1.0 mph 7.0 mph 54% 0.00 in 0.00 W/m2
00:49 39.7 °F 24.8 °F 30.06 in SE 3.0 mph 7.0 mph 55% 0.00 in 0.00 W/m2
00:54 39.6 °F 24.7 °F 30.06 in SSE 4.0 mph 8.0 mph 55% 0.00 in 0.00 W/m2
00:59 39.5 °F 24.7 °F 30.05 in SSE 2.0 mph 8.0 mph 55% 0.00 in 0.00 W/m2
01:05 39.5 °F 24.7 °F 30.05 in SSE 5.0 mph 8.0 mph 55% 0.00 in 0.00 W/m2
01:09 39.5 °F 24.7 °F 30.05 in SSE 1.0 mph 8.0 mph 55% 0.00 in 0.00 W/m2
01:14 39.4 °F 24.6 °F 30.05 in SSE 3.0 mph 6.0 mph 55% 0.00 in 0.00 W/m2
01:19 39.4 °F 24.6 °F 30.05 in SSE 2.0 mph 6.0 mph 55% 0.00 in 0.00 W/m2
01:24 39.4 °F 24.6 °F 30.05 in SSW 7.0 mph 7.0 mph 55% 0.00 in 0.00 W/m2
01:29 39.3 °F 24.5 °F 30.04 in Calm   7.0 mph 55% 0.00 in 0.00 W/m2
01:34 39.2 °F 24.4 °F 30.04 in SE 4.0 mph 7.0 mph 55% 0.00 in 0.00 W/m2
01:39 39.2 °F 24.4 °F 30.04 in SSE 3.0 mph 8.0 mph 55% 0.00 in 0.00 W/m2
01:44 39.2 °F 24.4 °F 30.04 in Calm   8.0 mph 55% 0.00 in 0.00 W/m2
01:49 39.2 °F 24.4 °F 30.04 in ESE 4.0 mph 8.0 mph 55% 0.00 in 0.00 W/m2
01:54 39.3 °F 24.5 °F 30.03 in South 4.0 mph 8.0 mph 55% 0.00 in 0.00 W/m2
01:59 39.3 °F 24.5 °F 30.04 in Calm   6.0 mph 55% 0.00 in 0.00 W/m2
02:04 39.3 °F 24.5 °F 30.04 in Calm   6.0 mph 55% 0.00 in 0.00 W/m2
02:09 39.3 °F 24.0 °F 30.04 in South 4.0 mph 6.0 mph 54% 0.00 in 0.00 W/m2
02:14 39.4 °F 24.1 °F 30.03 in SSE 5.0 mph 7.0 mph 54% 0.00 in 0.00 W/m2
02:20 39.4 °F 24.1 °F 30.03 in Calm   7.0 mph 54% 0.00 in 0.00 W/m2
02:24 39.3 °F 24.0 °F 30.03 in SSE 4.0 mph 6.0 mph 54% 0.00 in 0.00 W/m2
02:29 39.3 °F 24.0 °F 30.03 in South 1.0 mph 6.0 mph 54% 0.00 in 0.00 W/m2
02:34 39.3 °F 24.0 °F 30.03 in SW 1.0 mph 6.0 mph 54% 0.00 in 0.00 W/m2
02:39 39.3 °F 24.0 °F 30.02 in SE 1.0 mph 6.0 mph 54% 0.00 in 0.00 W/m2
02:44 39.2 °F 23.9 °F 30.02 in Calm   6.0 mph 54% 0.00 in 0.00 W/m2
02:49 39.1 °F 23.8 °F 30.02 in SE 5.0 mph 6.0 mph 54% 0.00 in 0.00 W/m2
02:54 39.1 °F 23.8 °F 30.02 in Calm   7.0 mph 54% 0.00 in 0.00 W/m2
02:59 39.1 °F 23.8 °F 30.01 in SSE 4.0 mph 7.0 mph 54% 0.00 in 0.00 W/m2
03:04 39.1 °F 23.8 °F 30.01 in SE 1.0 mph 7.0 mph 54% 0.00 in 0.00 W/m2
03:09 39.1 °F 23.8 °F 30.01 in SE 3.0 mph 7.0 mph 54% 0.00 in 0.00 W/m2
03:14 39.2 °F 23.5 °F 30.01 in Calm   8.0 mph 53% 0.00 in 0.00 W/m2
03:19 39.1 °F 23.4 °F 30.00 in SE 3.0 mph 8.0 mph 53% 0.00 in 0.00 W/m2
03:24 39.0 °F 23.3 °F 30.01 in SE 4.0 mph 6.0 mph 53% 0.00 in 0.00 W/m2
03:29 39.0 °F 23.3 °F 30.00 in SE 1.0 mph 7.0 mph 53% 0.00 in 0.00 W/m2
03:34 38.9 °F 23.2 °F 30.00 in SSE 3.0 mph 7.0 mph 53% 0.00 in 0.00 W/m2
03:39 38.8 °F 23.6 °F 30.00 in SSE 3.0 mph 7.0 mph 54% 0.00 in 0.00 W/m2
03:44 38.7 °F 23.5 °F 30.00 in Calm   7.0 mph 54% 0.00 in 0.00 W/m2
03:49 38.6 °F 23.4 °F 30.00 in Calm   7.0 mph 54% 0.00 in 0.00 W/m2
03:54 38.5 °F 22.8 °F 30.00 in SE 2.0 mph 7.0 mph 53% 0.00 in 0.00 W/m2
03:59 38.5 °F 22.8 °F 30.00 in Calm   5.0 mph 53% 0.00 in 0.00 W/m2
04:04 38.5 °F 22.8 °F 30.00 in Calm   5.0 mph 53% 0.00 in 0.00 W/m2
04:09 38.5 °F 22.8 °F 30.00 in SE 2.0 mph 6.0 mph 53% 0.00 in 0.00 W/m2
04:14 38.4 °F 22.7 °F 30.00 in SSE 3.0 mph 7.0 mph 53% 0.00 in 0.00 W/m2
04:19 38.5 °F 22.8 °F 29.99 in SSE 6.0 mph 7.0 mph 53% 0.00 in 0.00 W/m2
04:24 38.4 °F 22.7 °F 29.99 in SE 4.0 mph 6.0 mph 53% 0.00 in 0.00 W/m2
04:29 38.4 °F 22.7 °F 29.99 in SE 2.0 mph 7.0 mph 53% 0.00 in 0.00 W/m2
04:34 38.4 °F 22.7 °F 29.99 in SSE 3.0 mph 7.0 mph 53% 0.00 in 0.00 W/m2
04:39 38.4 °F 22.3 °F 29.99 in SE 1.0 mph 6.0 mph 52% 0.00 in 0.00 W/m2
04:44 38.6 °F 22.5 °F 29.98 in Calm   6.0 mph 52% 0.00 in 0.00 W/m2
04:49 38.8 °F 22.2 °F 29.98 in South 1.0 mph 6.0 mph 51% 0.00 in 0.00 W/m2
04:54 38.8 °F 22.2 °F 29.98 in SSE 6.0 mph 7.0 mph 51% 0.00 in 0.00 W/m2
04:59 38.8 °F 22.2 °F 29.98 in SSE 1.0 mph 7.0 mph 51% 0.00 in 0.00 W/m2
05:04 38.7 °F 22.1 °F 29.98 in South 4.0 mph 7.0 mph 51% 0.00 in 0.00 W/m2
05:09 38.8 °F 22.2 °F 29.98 in SE 4.0 mph 6.0 mph 51% 0.00 in 0.00 W/m2
05:14 38.8 °F 21.7 °F 29.98 in Calm   6.0 mph 50% 0.00 in 0.00 W/m2
05:19 38.9 °F 21.8 °F 29.98 in SSE 2.0 mph 5.0 mph 50% 0.00 in 0.00 W/m2
05:24 38.9 °F 21.3 °F 29.98 in South 3.0 mph 4.0 mph 49% 0.00 in 0.00 W/m2
05:29 38.9 °F 21.3 °F 29.98 in Calm   4.0 mph 49% 0.00 in 0.00 W/m2
05:35 39.0 °F 20.9 °F 29.98 in Calm   6.0 mph 48% 0.00 in 0.00 W/m2
05:39 39.1 °F 21.0 °F 29.98 in SSE 1.0 mph 6.0 mph 48% 0.00 in 0.00 W/m2
05:44 39.0 °F 20.9 °F 29.97 in SSE 3.0 mph 4.0 mph 48% 0.00 in 0.00 W/m2
05:49 39.0 °F 20.9 °F 29.97 in Calm   3.0 mph 48% 0.00 in 0.00 W/m2
05:54 38.9 °F 20.9 °F 29.97 in SSE 1.0 mph 5.0 mph 48% 0.00 in 0.00 W/m2
05:59 38.8 °F 20.8 °F 29.97 in SE 1.0 mph 5.0 mph 48% 0.00 in 0.00 W/m2
06:04 38.8 °F 20.8 °F 29.97 in South 2.0 mph 4.0 mph 48% 0.00 in 0.00 W/m2
06:09 38.9 °F 20.4 °F 29.97 in Calm   3.0 mph 47% 0.00 in 0.00 W/m2
06:14 38.9 °F 20.4 °F 29.97 in SSE 1.0 mph 2.0 mph 47% 0.00 in 0.00 W/m2
06:20 38.8 °F 20.3 °F 29.97 in Calm   1.0 mph 47% 0.00 in 0.00 W/m2
06:24 38.6 °F 20.1 °F 29.97 in Calm   1.0 mph 47% 0.00 in 0.00 W/m2
06:29 38.5 °F 20.0 °F 29.97 in Calm   3.0 mph 47% 0.00 in 0.00 W/m2
06:34 38.6 °F 20.1 °F 29.97 in SSE 1.0 mph 3.0 mph 47% 0.00 in 7.00 W/m2
06:39 38.8 °F 19.8 °F 29.97 in SSE 1.0 mph 3.0 mph 46% 0.00 in 9.00 W/m2
06:44 38.9 °F 19.9 °F 29.97 in Calm   3.0 mph 46% 0.00 in 9.00 W/m2
06:49 39.0 °F 19.4 °F 29.97 in Calm   1.0 mph 45% 0.00 in 9.00 W/m2
06:54 39.2 °F 19.1 °F 29.97 in Calm   4.0 mph 44% 0.00 in 12.00 W/m2
06:59 39.7 °F 19.0 °F 29.96 in Calm   4.0 mph 43% 0.00 in 18.00 W/m2
07:05 40.1 °F 18.8 °F 29.97 in Calm   4.0 mph 42% 0.00 in 21.00 W/m2
07:09 40.4 °F 19.1 °F 29.97 in SSW 1.0 mph 4.0 mph 42% 0.00 in 26.00 W/m2
07:14 40.6 °F 18.7 °F 29.97 in Calm   5.0 mph 41% 0.00 in 30.00 W/m2
07:20 40.9 °F 18.4 °F 29.97 in Calm   5.0 mph 40% 0.00 in 33.00 W/m2
07:24 41.1 °F 18.6 °F 29.97 in Calm   1.0 mph 40% 0.00 in 40.00 W/m2
07:29 41.3 °F 18.2 °F 29.97 in Calm   1.0 mph 39% 0.00 in 46.00 W/m2
07:35 41.5 °F 18.4 °F 29.97 in SSW 2.0 mph 3.0 mph 39% 0.00 in 51.00 W/m2
07:39 41.9 °F 18.1 °F 29.96 in Calm   3.0 mph 38% 0.00 in 54.00 W/m2
07:44 42.1 °F 18.3 °F 29.96 in South 1.0 mph 3.0 mph 38% 0.00 in 60.00 W/m2
07:49 42.4 °F 17.9 °F 29.96 in Calm   3.0 mph 37% 0.00 in 65.00 W/m2
07:54 42.8 °F 18.3 °F 29.96 in SE 1.0 mph 5.0 mph 37% 0.00 in 67.00 W/m2
07:59 43.2 °F 18.0 °F 29.96 in Calm   5.0 mph 36% 0.00 in 67.00 W/m2
08:05 43.5 °F 18.3 °F 29.97 in Calm   4.0 mph 36% 0.00 in 67.00 W/m2
08:09 43.7 °F 17.8 °F 29.97 in Calm   4.0 mph 35% 0.00 in 63.00 W/m2
08:14 43.8 °F 17.9 °F 29.97 in Calm   3.0 mph 35% 0.00 in 63.00 W/m2
08:19 44.1 °F 18.2 °F 29.96 in Calm   5.0 mph 35% 0.00 in 65.00 W/m2
08:24 44.2 °F 18.2 °F 29.97 in Calm   5.0 mph 35% 0.00 in 65.00 W/m2
08:29 44.4 °F 17.7 °F 29.97 in SE 1.0 mph 5.0 mph 34% 0.00 in 67.00 W/m2
08:35 44.7 °F 18.0 °F 29.96 in Calm   5.0 mph 34% 0.00 in 69.00 W/m2
08:39 44.9 °F 18.2 °F 29.96 in SSE 2.0 mph 3.0 mph 34% 0.00 in 72.00 W/m2
08:44 45.1 °F 18.4 °F 29.96 in Calm   5.0 mph 34% 0.00 in 74.00 W/m2
08:49 45.2 °F 17.8 °F 29.95 in Calm   6.0 mph 33% 0.00 in 74.00 W/m2
08:54 45.5 °F 18.0 °F 29.95 in SSE 1.0 mph 6.0 mph 33% 0.00 in 76.00 W/m2
08:59 45.7 °F 18.2 °F 29.95 in Calm   5.0 mph 33% 0.00 in 77.00 W/m2
09:04 45.8 °F 17.6 °F 29.95 in Calm   5.0 mph 32% 0.00 in 79.00 W/m2
09:09 46.0 °F 18.5 °F 29.95 in Calm   4.0 mph 33% 0.00 in 81.00 W/m2
09:14 46.1 °F 17.8 °F 29.95 in SSE 2.0 mph 5.0 mph 32% 0.00 in 84.00 W/m2
09:19 46.3 °F 18.0 °F 29.95 in Calm   5.0 mph 32% 0.00 in 84.00 W/m2
09:25 46.5 °F 18.2 °F 29.95 in Calm   3.0 mph 32% 0.00 in 86.00 W/m2
09:29 46.7 °F 18.4 °F 29.95 in SSE 1.0 mph 4.0 mph 32% 0.00 in 88.00 W/m2
09:34 46.9 °F 18.5 °F 29.95 in Calm   5.0 mph 32% 0.00 in 91.00 W/m2
09:39 47.1 °F 18.0 °F 29.95 in Calm   5.0 mph 31% 0.00 in 93.00 W/m2
09:44 47.3 °F 18.1 °F 29.95 in Calm   5.0 mph 31% 0.00 in 95.00 W/m2
09:49 47.4 °F 18.2 °F 29.95 in Calm   6.0 mph 31% 0.00 in 95.00 W/m2
09:55 47.6 °F 18.4 °F 29.95 in Calm   6.0 mph 31% 0.00 in 95.00 W/m2
09:59 47.7 °F 18.5 °F 29.95 in Calm   5.0 mph 31% 0.00 in 97.00 W/m2
10:04 47.8 °F 18.6 °F 29.94 in Calm   4.0 mph 31% 0.00 in 97.00 W/m2
10:09 47.9 °F 18.7 °F 29.94 in SW 1.0 mph 4.0 mph 31% 0.00 in 98.00 W/m2
10:14 48.1 °F 18.1 °F 29.94 in Calm   4.0 mph 30% 0.00 in 100.00 W/m2
10:20 48.3 °F 18.3 °F 29.94 in South 3.0 mph 4.0 mph 30% 0.00 in 100.00 W/m2
10:24 48.5 °F 18.4 °F 29.94 in Calm   4.0 mph 30% 0.00 in 100.00 W/m2
10:29 48.6 °F 17.7 °F 29.94 in Calm   4.0 mph 29% 0.00 in 100.00 W/m2
10:35 48.8 °F 18.7 °F 29.94 in Calm   4.0 mph 30% 0.00 in 100.00 W/m2
10:39 48.9 °F 18.0 °F 29.94 in Calm   4.0 mph 29% 0.00 in 98.00 W/m2
10:44 49.1 °F 18.2 °F 29.94 in SSE 1.0 mph 4.0 mph 29% 0.00 in 95.00 W/m2
10:49 49.2 °F 18.3 °F 29.94 in Calm   4.0 mph 29% 0.00 in 91.00 W/m2
10:54 49.2 °F 19.0 °F 29.93 in Calm   4.0 mph 30% 0.00 in 88.00 W/m2
10:59 49.3 °F 19.1 °F 29.93 in Calm   5.0 mph 30% 0.00 in 88.00 W/m2
11:04 49.3 °F 19.1 °F 29.93 in Calm   6.0 mph 30% 0.00 in 88.00 W/m2
11:09 49.4 °F 19.2 °F 29.93 in Calm   6.0 mph 30% 0.00 in 90.00 W/m2
11:14 49.4 °F 18.4 °F 29.93 in Calm   3.0 mph 29% 0.00 in 91.00 W/m2
11:20 49.5 °F 19.3 °F 29.92 in Calm   2.0 mph 30% 0.00 in 93.00 W/m2
11:24 49.5 °F 19.3 °F 29.92 in Calm   2.0 mph 30% 0.00 in 91.00 W/m2
11:29 49.6 °F 19.4 °F 29.92 in Calm   2.0 mph 30% 0.00 in 91.00 W/m2
11:35 49.6 °F 20.2 °F 29.92 in Calm   2.0 mph 31% 0.00 in 90.00 W/m2
11:39 49.6 °F 19.4 °F 29.91 in SE 3.0 mph 3.0 mph 30% 0.00 in 90.00 W/m2
11:44 49.7 °F 18.7 °F 29.91 in Calm   3.0 mph 29% 0.00 in 88.00 W/m2
11:49 49.8 °F 18.8 °F 29.91 in Calm   2.0 mph 29% 0.00 in 88.00 W/m2
11:54 49.9 °F 18.9 °F 29.91 in Calm   3.0 mph 29% 0.00 in 86.00 W/m2
11:59 50.1 °F 19.8 °F 29.90 in Calm   3.0 mph 30% 0.00 in 84.00 W/m2
12:04 50.2 °F 19.1 °F 29.91 in Calm   1.0 mph 29% 0.00 in 86.00 W/m2
12:09 50.3 °F 17.5 °F 29.91 in Calm   1.0 mph 27% 0.00 in 86.00 W/m2
12:14 50.5 °F 20.2 °F 29.91 in Calm     30% 0.00 in 88.00 W/m2
12:20 50.5 °F 20.9 °F 29.91 in Calm   1.0 mph 31% 0.00 in 91.00 W/m2
12:24 50.5 °F 21.7 °F 29.91 in Calm   1.0 mph 32% 0.00 in 95.00 W/m2
12:29 50.4 °F 21.6 °F 29.91 in Calm     32% 0.00 in 98.00 W/m2
12:34 50.3 °F 22.3 °F 29.91 in Calm     33% 0.00 in 102.00 W/m2
12:39 50.3 °F 23.0 °F 29.91 in Calm     34% 0.00 in 105.00 W/m2
12:44 50.2 °F 23.6 °F 29.91 in Calm     35% 0.00 in 107.00 W/m2
12:50 50.2 °F 24.2 °F 29.90 in Calm     36% 0.00 in 111.00 W/m2
12:54 50.2 °F 24.2 °F 29.90 in Calm     36% 0.00 in 114.00 W/m2
12:59 50.2 °F 23.6 °F 29.90 in Calm     35% 0.00 in 120.00 W/m2
13:04 50.3 °F 24.3 °F 29.90 in Calm     36% 0.00 in 123.00 W/m2
13:09 50.4 °F 24.4 °F 29.90 in Calm   1.0 mph 36% 0.00 in 127.00 W/m2
13:14 50.6 °F 21.8 °F 29.90 in Calm   1.0 mph 32% 0.00 in 125.00 W/m2
13:20 50.8 °F 22.0 °F 29.90 in Calm   1.0 mph 32% 0.00 in 125.00 W/m2
13:24 51.0 °F 22.9 °F 29.89 in Calm   1.0 mph 33% 0.00 in 125.00 W/m2
13:29 51.2 °F 22.3 °F 29.89 in Calm   1.0 mph 32% 0.00 in 127.00 W/m2
13:35 51.4 °F 21.7 °F 29.89 in Calm   1.0 mph 31% 0.00 in 125.00 W/m2
13:39 51.6 °F 21.1 °F 29.89 in Calm   1.0 mph 30% 0.00 in 121.00 W/m2
13:44 51.7 °F 21.2 °F 29.89 in Calm   1.0 mph 30% 0.00 in 120.00 W/m2
13:50 51.9 °F 22.2 °F 29.89 in Calm   1.0 mph 31% 0.00 in 118.00 W/m2
13:54 51.9 °F 22.2 °F 29.89 in Calm   1.0 mph 31% 0.00 in 114.00 W/m2
SE Aurora, Colorado Weather
Compliments of Weather Underground - 2 mb
top